Theta_e
314 314 314 313 312 310 309 309 309 309 309 308 308 309 308 306 302 293 284 286 285 278 279 281 281 277 275 274 270 271 272 271 266 262 260 263 263 268 270 271 276 275 275 268 266 268 268 282 284 281 283 283 283 283
313 314 313 313 312 310 309 309 309 309 308 308 308 308 307 305 302 294 284 286 286 281 278 283 282 282 281 278 276 274 273 269 275 266 265 265 265 264 262 261 276 273 277 274 275 275 282 282 283 284 284 283 283 283
312 313 313 312 311 310 309 309 309 308 308 308 308 308 307 304 302 293 284 283 282 277 277 277 277 281 287 284 283 271 275 280 278 276 269 266 264 273 265 266 269 274 277 277 279 280 280 283 284 283 284 284 284 283
310 312 311 310 309 309 309 309 308 308 308 307 307 307 306 304 300 293 286 284 283 278 272 273 284 282 286 286 285 285 283 283 278 275 271 261 264 275 273 274 272 273 275 272 275 281 282 281 280 281 282 283 283 283
309 310 311 310 309 308 308 308 308 307 307 307 306 306 305 302 298 289 285 284 284 283 272 272 279 282 285 285 284 284 283 282 280 274 271 267 271 273 273 272 269 273 273 275 274 279 279 280 279 280 280 280 280 281
303 310 310 309 309 308 308 307 307 306 306 306 306 305 303 299 296 289 281 285 286 283 274 268 280 280 283 284 283 282 282 280 280 277 275 277 279 273 264 260 272 274 275 277 276 275 277 278 276 276 276 274 275 275
301 306 309 308 308 308 307 307 306 306 306 306 305 303 301 300 288 285 283 284 288 283 275 267 266 279 282 282 281 280 281 278 278 276 273 275 276 274 271 263 273 273 274 274 273 275 275 275 275 275 275 274 270 269
299 301 308 308 307 307 307 306 306 306 306 305 304 302 301 298 292 281 284 290 284 278 273 264 263 267 278 274 276 280 277 277 275 275 275 274 274 273 266 269 269 269 269 270 271 270 272 269 268 267 266 267 267 268
297 299 307 307 307 306 306 306 305 305 305 304 302 299 294 287 284 282 291 286 281 280 271 264 267 264 276 272 278 278 280 272 274 269 272 268 262 265 269 269 264 265 268 269 262 259 260 265 264 262 262 265 267 267
296 297 305 307 306 306 305 305 305 305 302 300 297 286 282 284 292 289 277 274 275 271 267 268 263 264 274 276 274 275 274 271 264 265 267 267 264 267 268 268 264 262 263 259 268 268 263 264 263 264 264 261 263 264
295 296 304 306 305 305 305 304 304 300 300 291 282 279 283 291 283 274 266 270 265 268 267 265 267 270 274 267 266 274 262 266 259 260 259 253 260 268 265 262 260 259 260 263 261 260 258 260 261 260 262 258 256 258
293 294 301 305 305 304 304 303 301 297 288 285 283 284 283 278 272 271 264 261 262 269 263 268 269 269 273 269 266 269 259 258 261 253 257 258 268 267 261 262 259 256 255 256 254 259 257 257 256 256 256 257 257 257
291 293 302 305 304 304 302 302 301 294 293 289 281 277 277 268 264 269 265 261 259 265 267 267 266 268 265 267 262 260 259 260 254 255 261 266 267 265 262 257 256 252 251 253 255 255 254 255 252 254 257 254 255 260
290 292 302 304 304 302 302 298 297 296 289 281 275 269 272 264 268 268 268 269 270 272 271 266 263 264 259 262 259 263 256 256 256 258 264 267 266 264 259 256 257 259 255 256 257 255 256 257 255 253 254 254 260 262
290 292 302 303 302 302 297 298 298 291 286 279 275 272 265 264 259 258 261 270 270 275 269 265 262 266 255 259 255 256 257 259 263 267 267 267 263 261 260 257 256 257 257 257 256 257 257 257 260 258 255 255 260 259
289 292 302 302 302 298 299 298 290 286 286 277 267 267 260 267 260 261 261 270 276 274 266 266 258 259 258 260 260 262 263 264 269 265 266 262 262 260 259 257 258 258 258 260 257 257 257 258 262 259 256 258 258 261
287 285 301 302 299 299 299 291 289 285 284 276 268 259 268 275 274 268 267 270 276 271 267 263 264 264 259 256 258 260 267 271 267 263 257 260 265 264 260 259 259 260 263 260 256 257 256 255 256 261 263 256 259 259
285 292 301 299 298 295 287 286 285 284 276 268 269 268 261 265 267 262 263 276 272 266 266 268 262 259 263 263 261 267 267 261 256 258 260 259 257 256 262 266 263 266 266 262 259 257 256 259 264 260 260 258 259 258
286 297 298 297 291 287 285 284 283 274 266 262 263 264 264 266 265 272 274 267 264 267 267 262 263 263 265 264 267 262 260 262 267 263 260 256 258 260 263 265 266 266 266 260 258 262 259 259 262 263 262 259 261 256
287 298 295 296 294 285 280 278 281 277 273 268 265 264 267 269 267 272 269 262 267 266 266 265 267 268 269 268 267 267 264 265 267 264 263 261 258 260 264 268 268 265 261 258 258 259 261 261 258 261 259 261 262 259
290 293 296 294 284 283 280 276 272 270 265 266 264 267 269 266 266 265 267 262 266 263 267 268 270 266 261 261 260 260 262 267 270 272 271 264 259 264 265 266 266 263 261 263 266 261 262 265 262 261 261 258 258 258
289 295 285 284 279 277 275 274 273 268 268 265 265 266 267 265 266 265 263 265 264 270 269 268 266 265 263 266 264 263 266 263 259 264 267 269 266 265 266 267 267 266 266 268 269 268 262 261 262 261 260 259 259 257
288 287 282 281 276 275 271 274 274 274 272 270 266 268 263 261 262 263 266 264 267 269 267 266 265 261 268 259 260 261 264 269 265 265 266 266 270 271 271 268 268 270 267 263 263 266 263 263 262 261 260 259 258 257
287 280 277 274 274 270 274 272 273 273 272 269 267 262 264 266 263 262 264 263 269 263 266 267 266 267 267 266 268 270 267 269 265 262 266 272 271 266 267 271 270 268 267 267 267 265 264 263 262 261 260 259 258 258
279 274 275 270 273 271 269 268 267 268 265 260 263 260 263 265 260 258 261 266 264 266 264 264 264 268 275 271 264 268 267 274 275 275 270 271 266 263 261 258 260 262 267 268 266 266 263 263 262 261 261 260 258 256
272 274 273 272 271 272 269 269 268 264 264 261 260 257 257 259 262 268 265 271 268 269 271 273 275 269 268 271 270 270 274 271 273 274 270 272 274 274 272 269 267 269 266 271 268 266 264 264 263 261 260 258 258 257
271 270 270 267 267 265 264 265 263 267 264 264 259 258 260 266 269 270 265 258 259 255 257 261 273 278 279 276 265 261 263 274 272 271 268 273 270 267 272 274 274 273 270 270 270 268 267 265 264 263 260 259 259 259
261 262 269 262 263 261 267 264 266 266 263 260 265 263 271 273 273 263 256 255 253 254 256 255 257 259 263 266 267 266 264 264 265 267 267 266 261 259 260 262 265 272 271 271 270 269 269 267 265 263 262 261 259 259
259 257 259 260 258 259 257 263 262 255 255 267 267 265 267 254 249 250 253 254 255 253 256 257 259 258 261 261 262 263 267 271 272 270 270 269 265 269 259 264 269 269 269 269 270 269 268 267 266 265 263 261 258 257
256 254 256 254 257 255 252 250 250 248 248 249 251 254 252 250 250 250 250 251 252 251 251 252 255 258 261 263 264 262 258 256 258 268 271 272 271 264 266 268 267 268 269 269 268 268 269 264 262 260 258 256 256 254
253 251 253 254 253 252 251 250 248 247 248 250 248 255 252 249 249 248 248 247 248 250 253 255 256 255 259 262 265 264 263 259 256 256 257 259 264 266 267 267 267 268 268 266 264 263 261 262 261 259 258 257 256 256
253 250 254 257 255 252 249 250 251 253 252 253 251 249 250 253 254 252 250 248 251 251 252 252 254 255 253 255 256 256 257 258 262 259 261 262 264 265 266 266 266 265 265 264 263 262 263 262 260 260 258 257 256 255
255 251 250 254 255 255 253 255 257 257 256 253 250 245 245 251 256 249 249 247 247 248 249 250 252 252 252 253 255 255 256 256 259 266 265 265 264 265 264 265 265 264 263 263 263 262 261 261 260 259 258 256 255 255
Wind_Speed
24 31 34 38 39 38 38 37 35 34 34 33 31 29 28 25 20 7 2 1 5 4 1 0 1 4 2 1 4 5 4 4 4 4 4 3 2 3 1 4 3 4 4 3 2 2 5 4 5 4 1 2 3 4
25 27 31 38 41 41 39 38 37 36 34 33 31 30 29 26 20 11 4 1 3 6 3 1 2 2 1 3 4 1 3 3 3 4 2 2 2 0 2 4 1 3 6 4 8 6 4 3 2 2 2 2 2 2
24 30 34 38 37 38 41 39 38 36 36 34 32 31 29 26 20 10 4 5 5 5 3 3 0 3 2 1 2 4 2 1 1 2 3 2 3 3 2 6 2 4 3 3 4 1 4 3 4 3 3 3 1 2
22 32 34 39 39 40 41 40 39 37 35 35 33 31 29 26 20 12 5 4 6 4 5 3 1 1 1 1 2 1 2 3 4 2 2 3 2 1 3 2 4 5 3 3 6 7 6 2 2 4 6 4 3 4
26 27 40 40 41 40 40 40 40 38 36 35 33 31 29 26 20 10 4 3 3 6 4 2 1 2 2 2 3 3 3 2 1 2 1 4 2 1 2 2 5 5 7 6 6 1 1 3 5 5 6 6 7 5
10 32 36 42 42 41 42 40 39 39 38 35 34 32 30 28 19 6 4 2 3 4 6 2 2 2 2 0 2 3 1 1 1 2 2 2 2 1 1 4 7 5 3 2 1 2 3 6 1 4 4 4 5 4
8 13 36 42 43 42 42 41 41 40 38 36 35 33 30 25 6 4 6 4 8 4 5 3 2 1 1 2 1 1 1 1 0 1 2 2 1 1 2 5 6 3 5 0 2 3 5 1 2 5 3 3 1 1
5 11 35 35 35 39 41 42 41 40 39 38 36 31 27 25 15 5 3 9 4 7 5 4 3 2 2 2 2 1 2 1 1 1 1 1 1 1 6 11 7 5 3 6 7 5 4 2 2 3 3 4 4 4
8 10 29 43 43 42 42 41 42 41 40 39 36 31 10 5 3 3 11 11 4 5 4 3 6 5 1 3 2 1 1 2 1 1 1 2 3 8 12 8 5 5 5 5 1 0 2 3 4 4 2 2 3 1
10 13 22 43 45 45 44 46 46 45 45 43 21 6 3 2 21 15 9 5 5 4 4 3 1 3 3 3 3 3 1 1 2 3 3 3 7 8 9 9 5 5 7 5 3 4 2 2 3 2 3 2 2 3
9 12 22 42 45 46 46 48 49 50 42 8 5 5 2 18 4 5 2 4 2 2 2 2 4 6 2 4 4 1 2 1 2 5 4 3 7 7 3 4 3 3 5 8 3 1 2 1 1 2 3 2 1 1
10 14 17 42 45 49 54 54 54 19 7 12 16 10 4 3 4 6 3 2 2 8 1 5 4 4 3 3 5 0 4 3 4 1 4 5 8 6 3 3 2 2 2 2 2 1 0 2 4 3 2 1 1 1
14 16 17 44 50 54 58 58 37 42 37 14 8 6 4 1 3 12 10 6 2 6 6 4 3 3 2 3 4 4 4 5 1 4 6 9 5 5 5 2 2 2 2 2 3 1 1 0 1 1 4 2 4 6
15 16 21 46 52 58 59 47 50 32 16 7 7 7 9 7 9 8 7 7 6 7 11 5 5 4 1 5 2 5 2 3 4 2 9 5 7 4 3 2 4 4 3 4 4 3 4 4 3 3 4 3 4 6
14 17 29 50 57 57 50 50 39 10 5 6 8 10 6 3 3 2 3 6 3 11 8 5 5 4 2 6 2 5 4 4 8 8 6 5 3 4 4 3 4 4 4 4 4 4 4 4 5 6 4 3 6 6
12 12 22 57 56 52 53 41 9 4 4 5 4 6 2 6 3 1 1 5 5 9 4 4 6 5 1 6 5 9 7 9 7 6 5 2 2 3 4 4 4 4 4 5 3 4 4 5 6 7 4 6 5 5
6 5 49 55 53 51 45 15 5 4 5 5 1 1 4 6 9 5 5 4 8 6 5 5 7 8 5 4 2 6 9 6 5 4 3 4 5 5 5 5 5 5 6 5 4 4 4 4 5 5 9 3 6 7
2 11 53 53 38 30 5 3 5 5 4 2 4 4 1 3 7 3 3 11 7 4 5 6 9 5 8 9 6 7 6 3 3 3 2 2 2 2 5 8 6 6 6 5 4 5 4 5 6 4 7 5 7 6
5 19 54 47 22 11 6 2 3 6 2 2 2 3 3 4 1 8 7 3 2 5 8 3 6 5 6 6 6 4 3 4 4 3 2 1 4 6 6 5 5 5 6 6 4 4 3 2 4 6 6 3 6 3
6 47 49 39 22 6 6 4 3 5 4 3 3 4 4 4 2 5 6 1 4 5 3 2 6 6 6 5 5 4 4 5 5 3 2 1 2 5 6 7 5 6 5 4 4 4 4 4 3 4 3 5 7 5
10 29 41 15 6 6 5 4 5 3 5 5 3 4 4 3 4 4 2 1 4 4 3 7 5 4 2 1 2 3 2 4 5 5 6 4 3 4 4 3 6 4 4 4 6 3 3 4 5 5 5 3 3 5
9 27 5 6 6 5 5 4 7 5 5 3 3 3 4 3 4 2 3 3 3 5 6 4 4 4 2 2 4 5 5 7 4 4 7 11 7 5 6 7 8 6 5 6 6 7 4 4 5 5 6 5 6 4
13 5 5 4 7 6 3 1 6 4 6 3 2 5 3 3 3 2 2 3 5 4 4 4 3 1 5 1 3 2 5 7 4 4 4 3 4 5 7 7 5 8 6 4 3 6 6 7 7 7 7 6 6 5
10 6 5 5 5 6 4 4 4 5 5 3 5 5 1 3 2 3 4 4 5 1 3 6 4 3 4 3 2 4 5 4 4 2 3 7 6 3 4 7 6 3 3 7 7 6 7 6 8 7 7 7 6 7
7 4 6 6 3 6 6 4 4 6 5 2 6 3 1 3 3 2 5 5 3 4 3 3 2 3 5 2 3 1 5 7 7 6 6 3 5 4 3 3 1 3 4 9 8 9 8 8 7 8 8 8 9 8
8 3 3 5 4 5 6 7 6 6 7 5 2 2 3 4 4 8 7 6 5 5 8 11 10 4 4 5 4 4 6 5 4 3 4 8 9 9 10 9 7 7 6 6 10 12 11 9 10 11 9 8 10 11
5 3 3 3 5 6 6 5 2 6 7 8 7 6 5 5 8 6 1 3 2 3 4 3 4 9 8 5 2 1 1 7 4 2 1 7 4 2 6 9 12 5 12 10 11 13 15 14 12 11 9 8 9 10
4 4 5 1 5 2 8 5 6 6 6 4 8 6 12 12 9 1 1 2 1 4 4 3 1 3 2 1 5 6 5 5 7 6 6 4 3 2 1 0 1 12 11 11 11 11 12 12 13 13 13 11 9 7
4 5 2 5 4 7 5 2 3 1 1 6 7 6 6 1 1 2 3 3 5 2 2 3 4 4 3 4 5 3 4 8 11 7 8 5 2 4 2 3 5 6 7 8 10 10 12 11 12 11 11 9 7 7
5 4 3 4 5 2 2 1 1 1 1 0 3 4 3 2 2 1 2 4 4 2 2 2 2 1 2 3 4 2 2 2 2 3 5 6 6 5 6 7 6 7 8 10 11 13 16 13 13 7 9 8 7 6
4 3 4 4 3 2 2 1 0 1 1 4 3 4 2 2 2 2 1 1 3 4 3 4 3 3 0 3 4 4 2 3 2 1 1 1 4 8 8 7 7 8 8 10 11 11 11 10 9 12 12 12 10 9
3 3 2 5 1 2 1 2 2 3 3 4 4 2 1 2 3 3 4 4 4 5 4 2 2 2 3 2 2 2 5 2 4 3 6 4 4 6 7 7 7 8 10 10 9 10 11 12 11 11 11 13 12 11
1 1 2 5 4 3 2 3 4 3 4 3 3 1 1 3 3 2 3 3 2 3 4 3 3 3 3 3 1 1 2 1 2 6 8 9 10 10 7 7 7 9 11 10 10 10 12 14 12 13 13 13 12 11
Wind_Direction
210 199 191 188 184 179 178 178 183 177 174 169 171 170 168 161 154 114 115 319 114 115 298 99 96 129 67 103 147 246 38 336 32 55 121 232 172 230 283 248 207 192 161 220 79 344 310 355 348 61 251 302 320 5
215 207 198 194 188 177 177 178 179 177 172 167 167 167 164 157 146 118 105 320 77 82 150 34 85 115 58 197 138 316 173 176 194 83 263 71 266 46 163 283 284 270 189 199 183 219 249 312 49 323 191 245 300 44
218 208 196 190 182 178 174 174 177 175 168 164 165 165 161 156 151 119 123 154 71 96 30 53 125 293 130 101 118 122 288 254 99 135 156 212 231 134 206 242 268 254 210 235 26 281 268 247 281 251 269 231 40 35
220 207 192 179 175 174 174 174 173 171 164 163 163 160 159 154 139 116 126 168 91 107 118 274 271 252 149 229 221 212 74 109 100 87 100 145 176 42 251 280 216 208 110 211 274 289 284 313 343 313 296 323 326 358
218 214 186 184 178 175 173 170 168 165 162 161 157 154 152 141 121 88 93 186 132 126 171 185 321 287 208 213 219 190 225 218 169 125 157 234 250 305 291 330 245 192 192 175 222 266 243 315 334 351 359 357 354 340
330 206 190 180 177 172 172 167 164 162 159 155 150 148 143 135 121 88 28 281 172 124 103 87 266 197 186 126 133 107 105 83 160 210 232 262 108 168 309 250 259 216 203 194 205 11 308 298 29 4 355 346 345 26
353 217 181 178 173 171 165 167 161 159 152 149 145 144 141 134 87 118 184 190 145 103 92 48 3 272 228 149 113 105 51 109 108 199 232 252 256 107 243 248 261 257 232 243 49 328 283 64 225 333 332 304 329 173
341 341 173 169 170 166 165 160 156 151 146 143 138 138 128 109 113 49 360 104 83 92 74 113 263 3 281 205 190 183 149 151 104 289 251 257 292 225 252 245 259 260 294 295 267 216 226 290 302 322 314 343 35 26
329 327 199 172 169 165 160 155 148 143 139 132 125 119 100 53 99 152 126 82 60 119 153 112 154 220 129 225 131 156 196 223 112 225 194 84 251 230 225 229 238 221 173 184 241 280 333 221 252 271 282 9 108 257
341 347 210 174 168 163 158 149 140 136 127 126 121 82 101 230 128 127 14 40 11 337 38 164 63 158 163 167 172 147 278 226 236 244 337 230 259 264 254 233 213 206 195 163 42 330 354 291 216 240 211 221 183 169
327 335 204 169 163 155 147 141 133 129 131 123 107 85 63 150 80 41 78 112 302 304 161 179 160 142 229 122 173 69 191 110 51 260 127 300 275 246 243 240 245 237 211 215 198 174 55 115 172 238 312 300 258 184
317 318 221 165 157 148 141 137 141 129 132 127 108 99 99 76 52 125 198 357 146 218 217 141 180 138 140 108 101 290 142 48 242 324 68 281 251 249 241 234 215 225 229 241 177 145 202 218 204 191 198 117 192 97
326 314 206 160 152 145 140 145 136 126 117 117 85 105 135 262 91 172 187 248 187 173 176 165 117 122 78 70 70 98 92 218 19 48 236 234 263 271 233 180 191 243 217 133 142 178 151 153 68 145 141 187 146 116
321 316 189 153 148 142 146 135 139 126 124 109 129 128 180 193 221 180 167 159 201 127 141 126 105 128 179 70 134 103 249 70 36 347 237 244 228 234 162 172 140 189 170 155 142 126 126 125 96 67 84 147 133 111
327 311 180 150 146 145 138 145 150 138 101 115 115 189 187 167 38 147 138 103 148 141 128 104 68 94 23 95 48 109 43 258 210 230 232 234 222 167 172 191 173 154 149 146 163 142 139 127 107 87 30 79 103 108
349 318 171 149 146 143 147 150 123 69 54 101 78 102 333 92 357 34 238 116 148 141 91 60 118 80 219 135 108 212 137 220 242 220 232 154 176 190 181 183 165 139 145 139 128 125 116 110 115 122 84 60 72 96
320 273 153 148 145 145 144 120 70 76 116 115 182 44 167 120 155 159 144 147 151 122 153 131 107 188 107 64 270 198 205 219 215 238 226 201 178 182 164 141 145 143 125 127 118 116 127 142 127 104 102 21 72 71
248 193 147 141 137 124 71 49 103 106 106 158 137 192 151 78 111 113 122 144 131 142 138 182 127 126 172 169 244 231 225 252 220 208 208 221 218 181 159 149 154 151 142 134 121 124 121 127 118 109 118 133 101 83
308 170 140 135 134 114 107 89 66 96 103 165 76 64 69 104 20 103 122 104 93 104 114 48 97 170 213 214 214 236 215 192 175 204 204 205 190 162 150 129 134 135 137 136 146 146 155 135 128 142 136 117 115 124
330 144 138 144 127 86 90 82 90 109 142 156 78 63 82 80 137 95 92 340 100 103 63 142 204 212 191 219 191 193 178 148 128 82 331 295 217 150 165 159 156 125 113 94 91 112 111 84 62 118 130 137 139 155
149 151 144 120 62 63 85 106 75 107 129 87 163 82 78 30 71 88 158 257 62 160 197 215 224 233 173 167 137 124 142 154 170 160 174 164 192 150 144 131 131 131 136 158 154 150 152 163 148 149 133 126 95 101
126 146 67 59 79 72 84 7 110 134 70 117 81 86 101 85 112 171 161 65 212 231 203 174 212 159 135 205 200 194 175 137 120 100 73 115 137 156 178 173 154 174 174 172 164 164 153 135 133 126 121 115 108 108
114 87 71 75 87 60 85 281 83 60 110 156 65 90 36 81 202 33 175 221 240 230 177 178 202 167 142 160 117 130 182 143 145 155 145 128 117 127 139 164 170 161 167 208 139 134 141 142 130 124 122 117 120 118
47 63 74 79 81 100 110 73 89 97 87 68 83 87 128 134 86 58 219 243 244 207 164 173 146 76 37 22 195 199 176 152 120 93 169 140 146 189 164 171 178 164 131 124 138 133 141 144 134 136 139 139 139 141
92 28 90 73 90 112 103 99 86 79 102 116 93 91 218 100 112 205 222 255 232 200 156 163 198 188 156 210 343 220 183 166 173 176 184 148 108 92 63 56 99 174 148 139 155 151 152 149 145 151 155 152 150 148
83 38 83 133 135 108 166 118 135 129 114 91 104 150 89 114 139 236 217 213 198 160 174 186 183 177 249 187 160 208 207 170 121 147 176 183 175 165 168 166 172 216 195 170 153 160 160 160 159 159 155 146 147 148
100 79 54 31 88 107 86 70 85 109 129 152 165 148 127 153 219 248 217 20 4 326 326 313 191 182 209 176 173 303 359 141 129 161 94 165 149 135 157 172 193 187 155 167 167 165 165 166 166 161 150 157 173 169
49 11 116 256 80 26 123 127 145 155 156 167 122 162 171 183 202 267 26 319 329 329 295 279 41 61 320 115 116 124 87 99 94 92 90 66 63 56 69 165 133 148 157 162 160 160 164 163 160 160 164 169 165 161
43 353 334 59 65 45 42 99 147 187 13 169 131 173 208 37 353 311 350 336 294 280 340 30 18 21 15 52 62 44 144 157 144 148 179 186 187 227 139 134 131 132 134 130 135 134 141 146 154 156 152 148 140 129
21 355 66 54 63 67 278 228 244 252 323 112 118 91 59 7 290 347 347 342 9 349 304 14 336 312 210 140 128 66 11 37 36 139 165 190 198 143 149 142 136 136 135 130 127 124 115 112 112 102 112 119 128 128
304 336 74 60 85 260 246 210 133 89 39 50 17 77 102 230 322 357 351 310 315 322 28 23 338 332 153 129 134 139 219 221 162 182 217 132 123 135 139 137 134 133 134 132 133 135 136 133 132 136 142 143 143 140
321 19 117 98 92 278 21 33 61 75 7 55 8 66 79 79 43 324 352 5 34 29 353 355 308 345 331 319 60 300 300 232 160 141 137 120 107 115 119 120 121 126 128 126 124 133 139 137 141 143 140 140 143 143
297 13 49 99 72 336 306 70 24 68 38 47 17 19 38 85 134 286 321 78 103 264 286 297 283 292 335 323 59 49 47 111 137 105 106 107 114 116 113 115 117 122 124 123 127 133 135 135 134 136 136 139 138 139